sat.trackr.live / text

‹ back to catalog

QPS-SAR-15 (SUKUNAMI-I)

NORAD 67228 · 2025-307A

PAYLOAD ACTIVE UNKNOWN

§ Identity

Operator
Country
JPN
Launch date
2025-12-21
Launch site
RLLB
Launch vehicle
Mass (kg)
RCS (m²)

External: N2YO · Heavens-Above · Gunter

§ Orbital elements

Epoch: 2026-05-24T23:36:03.572352Z

Period
96.08 min
Inclination
42.0081°
Eccentricity
0.0010427
Mean motion
14.98768799 rev/d
Perigee alt
563.5 km
Apogee alt
577.9 km
Semi-major
6,948.8 km
B*
3.2338e-4
RAAN
355.3023°
Arg perigee
211.1453°
Mean anomaly
148.8755°
Rev number
2,320

§ Raw data

QPS-SAR-15 (SUKUNAMI-I)1 67228U 25307A   26144.98337468  .00003782  00000+0  32338-3 0  99982 67228  42.0081 355.3023 0010427 211.1453 148.8755 14.98768799 23207

JSON: /api/v1/satellites/67228 · /tle

For live sub-satellite position, see the globe view (requires WebGL).

§ Visibility from observer

Set your observer location to see the next 7 days of passes ≥ 10°. The values pass through the URL so the page stays shareable.

No JS? Fill the form by hand. The geolocation button needs JavaScript.